����27�N�x�@��C��������Ԃɂ�鑪�茋��,,,,,,,,,,,,,,
,,,,,,,,,,,,,,
�P�@����n�_,,,,,,,,,,,,,,
���i�s�܌ˁi���i�s�܌˒����q�m��28�|31),,,,,,,,,,,,,,
,,,,,,,,,,,,,,
�Q�@���Ԓl�i�m��l�j������27�N7��16���`����27�N8��7��,,,,,,,,,,,,,,
,,,,,,,,,,,,,,
,�N,��,��,��,SO2,SPM,Ox,CO,NO,NO2,���x,���x,����,����
,,,,,ppm,mg/m3,ppm,ppm,ppm,ppm,��,%,�P�U����,m/s
H02,2015,7,16,1,***,0.01,0.007,***,***,***,23.5,96.8,CALM,0.1
H02,2015,7,16,2,0,0.02,0.004,0.1,0.001,0.008,23,99.2,CALM,0.1
H02,2015,7,16,3,0,0.02,0.002,0.2,0.003,0.011,22.9,99.2,NE,0.3
H02,2015,7,16,4,0,0.018,0.005,0.1,0,0.009,21.9,99.2,NNE,0.9
H02,2015,7,16,5,0,0.011,0.005,0.1,0,0.008,21.9,99.2,NNE,1.8
H02,2015,7,16,6,0,0.014,0.008,0.1,0,0.007,21.8,99.2,ENE,2.1
H02,2015,7,16,7,0,0.011,0.01,0.1,0.001,0.006,22.2,99.2,NNE,1.1
H02,2015,7,16,8,0,0.012,0.011,0.2,0.003,0.007,22.8,99.2,CALM,0.1
H02,2015,7,16,9,0,0.022,0.01,0.2,0.005,0.007,25.4,99.2,ENE,1.2
H02,2015,7,16,10,0,0.016,0.013,0.1,0.002,0.005,24.7,99.2,E,1.3
H02,2015,7,16,11,0,0.017,0.015,0.1,0.002,0.003,27.5,97.3,E,1.8
H02,2015,7,16,12,0,0.017,0.02,0.1,0.001,0.003,26.4,99.2,***,***
H02,2015,7,16,13,0,0.029,0.02,0.1,0.001,0.002,26,99.2,***,***
H02,2015,7,16,14,0,0.038,0.022,0.1,0.001,0.002,27.4,92.3,SE,2.7
H02,2015,7,16,15,0,0.023,0.021,0.1,0,0.001,28.5,80.4,SE,5.4
H02,2015,7,16,16,0,0.032,0.02,0.1,0,0.001,28.5,78.1,SE,4
H02,2015,7,16,17,0,0.028,0.018,0.1,0,0.001,27.4,81.3,ESE,3.9
H02,2015,7,16,18,0,0.03,0.018,0.1,0,0.002,26.7,84.6,ESE,3.5
H02,2015,7,16,19,0,0.031,0.018,0.1,0,0.002,25.7,88.6,ESE,4.6
H02,2015,7,16,20,0,0.031,0.019,0.1,0,0.001,26.1,83.8,SE,5.2
H02,2015,7,16,21,0,0.031,0.018,0.1,0,0.001,25.5,87.9,ESE,3.3
H02,2015,7,16,22,0,0.024,0.014,0.1,0,0.001,24.6,94.9,***,***
H02,2015,7,16,23,0,0.021,0.016,0.1,0,0.001,23.7,99.2,***,***
H02,2015,7,16,24,0,0.028,0.019,0.1,0,0.001,24.5,94.6,***,***
H02,2015,7,17,1,0,0.028,0.021,0.1,0,0.001,24.9,89.9,***,***
H02,2015,7,17,2,0,0.035,0.024,0.1,0,0.001,25.4,86.3,SE,4.7
H02,2015,7,17,3,0,0.036,0.023,0.1,0,0.001,25.4,86.5,SE,4.3
H02,2015,7,17,4,0,0.035,0.022,0.1,0,0.001,24.9,90.4,SE,4.7
H02,2015,7,17,5,0,0.032,0.02,0.1,0,0.001,24.8,91.7,SE,4.1
H02,2015,7,17,6,0,0.025,0.015,0.1,0,0.001,25,90.4,SE,4.4
H02,2015,7,17,7,0,0.028,0.011,0.1,0,0.002,25.5,88.4,SE,3.9
H02,2015,7,17,8,0,0.028,0.011,0.1,0,0.002,25.8,87.4,SE,4.1
H02,2015,7,17,9,0,0.028,0.013,0.1,0,0.002,25.5,87.1,SE,4
H02,2015,7,17,10,0,0.031,0.013,0.1,0,0.003,25.4,93.2,SE,3.2
H02,2015,7,17,11,0,0.03,0.013,0.1,0.001,0.003,25.2,92.3,SE,3.3
H02,2015,7,17,12,0,0.043,0.012,0.1,0,0.003,24.6,94.4,***,***
H02,2015,7,17,13,0,0.038,0.011,0.1,0,0.002,25,94.4,***,***
H02,2015,7,17,14,0,0.046,0.01,0.1,0,0.002,24.6,98.4,***,***
H02,2015,7,17,15,0,0.036,0.008,0.1,0,0.002,25.2,94.5,***,***
H02,2015,7,17,16,0,0.03,0.007,0.1,0,0.002,24.9,92.1,SE,3.5
H02,2015,7,17,17,0,0.036,0.006,0.1,0,0.002,24.8,93.1,SE,3.6
H02,2015,7,17,18,0,0.035,0.005,0.1,0,0.002,24.9,91.1,SE,3.8
H02,2015,7,17,19,0,0.034,0.005,0.1,0,0.002,24.8,92.3,SE,3.5
H02,2015,7,17,20,0,0.03,0.005,0.1,0,0.002,24.8,92.3,SE,3.4
H02,2015,7,17,21,0,0.038,0.005,0.1,0,0.002,23.9,99.2,***,***
H02,2015,7,17,22,0,0.036,0.004,0.1,0,0.003,23.9,99.1,***,***
H02,2015,7,17,23,0,0.029,0.003,0.1,0,0.003,24,98.1,***,***
H02,2015,7,17,24,0,0.035,0.004,0.1,0,0.002,24.1,97.3,SE,3.5
H02,2015,7,18,1,0,0.029,0.003,0.1,0,0.002,23.9,99.2,***,***
H02,2015,7,18,2,0,0.025,0.002,0.1,0,0.002,23.6,99.2,***,***
H02,2015,7,18,3,0,0.026,0.002,0.1,0,0.002,23.6,99.2,***,***
H02,2015,7,18,4,0,0.027,0.002,0.1,0,0.002,23.4,99.2,***,***
H02,2015,7,18,5,0,0.031,0.002,0.1,0,0.002,23.3,99.2,***,***
H02,2015,7,18,6,0,0.032,0.003,0.1,0,0.001,23.3,99.2,***,***
H02,2015,7,18,7,0,0.026,0.002,0.1,0,0.002,23.3,99.2,***,***
H02,2015,7,18,8,0,0.02,0.002,0.1,0,0.002,23.7,99.2,***,***
H02,2015,7,18,9,0,0.025,0.003,0.1,0.001,0.002,23.9,99.2,***,***
H02,2015,7,18,10,0,0.023,0.002,0.1,0.001,0.003,24.2,99.2,***,***
H02,2015,7,18,11,0,0.038,0.004,0.1,0.001,0.002,24.9,99.2,SE,1.7
H02,2015,7,18,12,0,0.02,0.006,0.1,0.001,0.002,25,96.4,SE,1.3
H02,2015,7,18,13,0,0.019,0.009,0.1,0,0.002,25.2,94,SE,1.2
H02,2015,7,18,14,0,0.024,0.013,0.1,0,0.002,26.4,90,SE,1.5
H02,2015,7,18,15,0,0.025,0.016,0.1,0,0.001,27.7,82.9,SE,1.6
H02,2015,7,18,16,0,0.014,0.016,0.1,0,0,29.3,78.6,SE,1.4
H02,2015,7,18,17,0,0.015,0.016,0.1,0,0.001,28.1,77.7,SSE,1.6
H02,2015,7,18,18,0,0.018,0.014,0.1,0,0.001,27.6,78.5,SE,2
H02,2015,7,18,19,0,0.013,0.012,0.1,0,0.001,25.8,86.8,SE,1
H02,2015,7,18,20,0,0.019,0.011,0.1,0,0.002,24.9,90.3,SE,0.9
H02,2015,7,18,21,0,0.019,0.008,0.1,0,0.004,24.5,92.7,SE,1.8
H02,2015,7,18,22,0,0.021,0.005,0.1,0,0.004,24.3,93.1,SE,0.9
H02,2015,7,18,23,0,0.028,0.003,0.1,0,0.004,23.5,97.7,SE,1
H02,2015,7,18,24,0,0.023,0.002,0.1,0,0.004,24,96.8,ESE,0.9
H02,2015,7,19,1,0,0.016,0.002,0.1,0,0.004,24.1,97.3,ESE,0.8
H02,2015,7,19,2,0,0.012,0.002,0.1,0,0.004,24,98.1,ESE,0.3
H02,2015,7,19,3,0,0.016,0.002,0.1,0,0.003,24,98.7,CALM,0.1
H02,2015,7,19,4,0,0.014,0.002,0.1,0,0.003,23.3,99.2,SE,0.6
H02,2015,7,19,5,0,0.018,0,0.1,0,0.004,23,99.2,SE,1
H02,2015,7,19,6,0,0.024,0,0.1,0.001,0.004,23.6,99.2,SE,0.8
H02,2015,7,19,7,0,0.021,0,0.1,0.001,0.003,24.5,98.2,SE,0.8
H02,2015,7,19,8,0,0.017,0.002,0.1,0.001,0.002,25.6,92.9,ESE,0.8
H02,2015,7,19,9,0,0.017,0.006,0.1,0.001,0.002,26.6,87.8,SE,1.3
H02,2015,7,19,10,0,0.014,0.013,0.1,0,0.001,28.8,80,SSE,1.2
H02,2015,7,19,11,0,0.013,0.024,0.2,0,0.002,29.7,74.5,SE,1.3
H02,2015,7,19,12,0,0.026,0.029,0.1,0,0.001,30,71.7,N,0.6
H02,2015,7,19,13,0,0.022,0.036,0.2,0,0.002,31,73.1,E,0.6
H02,2015,7,19,14,0,0.036,0.047,0.2,0,0.003,30.3,72,WSW,0.9
H02,2015,7,19,15,0,0.023,0.038,0.2,0,0.002,30.5,75,S,0.9
H02,2015,7,19,16,0,0.011,0.032,0.1,0,0.001,30,76.9,SSE,1.5
H02,2015,7,19,17,0,0.021,0.028,0.1,0,0.001,28.2,81.3,SE,1.2
H02,2015,7,19,18,0,0.014,0.022,0.1,0,0.001,27.2,84.4,SE,2.2
H02,2015,7,19,19,0,0.035,0.014,0.1,0,0.002,26.3,89.6,SE,2.3
H02,2015,7,19,20,0,0.028,0.009,0.1,0,0.003,25.4,92.8,SE,1.5
H02,2015,7,19,21,0,0.026,0.005,0.1,0,0.003,25.2,93.9,SE,1
H02,2015,7,19,22,0,0.034,0.003,0.1,0,0.003,24.8,95.3,SE,1.1
H02,2015,7,19,23,0,0.032,0.002,0.1,0,0.004,24.3,97.5,ESE,1
H02,2015,7,19,24,0,0.022,0.001,0.1,0,0.003,24.6,95.4,ESE,0.6
H02,2015,7,20,1,0,0.021,0,0.1,0,0.003,24.1,99.2,SE,0.5
H02,2015,7,20,2,0,0.027,0,0.1,0,0.002,23.8,99.2,E,0.6
H02,2015,7,20,3,0,0.027,0,0.1,0,0.003,23.5,99.2,CALM,0
H02,2015,7,20,4,0,0.032,0,0.1,0,0.003,23.1,99.2,CALM,0
H02,2015,7,20,5,0,0.016,0,0.1,0,0.003,22.8,99.2,SE,0.7
H02,2015,7,20,6,0,0.019,0,0.1,0.001,0.001,23.6,99.2,CALM,0
H02,2015,7,20,7,0,0.019,0,0.2,0.005,0.002,26.9,84,ENE,0.6
H02,2015,7,20,8,0,0.021,0.003,0.2,0.002,0.002,26.7,86,E,0.6
H02,2015,7,20,9,0,0.018,0.011,0.1,0.001,0.002,28.3,82.4,SE,1.4
H02,2015,7,20,10,0.001,0.028,0.021,0.2,0.001,0.003,28.4,75.9,SE,1
H02,2015,7,20,11,0.001,0.029,0.032,0.2,0.001,0.003,31.6,65,SE,1.5
H02,2015,7,20,12,0,0.016,0.031,0.1,0,0.001,31.8,54.7,ESE,1.4
H02,2015,7,20,13,0,0.015,0.038,0.1,0,0.002,32.9,49.3,ESE,1
H02,2015,7,20,14,0,0.013,0.031,0.1,0,0.001,33.8,50.2,SSE,1.6
H02,2015,7,20,15,0,0.026,0.029,0.1,0,0.001,32.6,56.8,SSE,1.4
H02,2015,7,20,16,0,0.024,0.022,0.1,0,0.001,31.6,63.4,SSE,1.7
H02,2015,7,20,17,0,0.014,0.018,0.1,0,0.001,29.6,71.7,SE,3.1
H02,2015,7,20,18,0,0.019,0.015,0.1,0,0.001,27.6,77.9,SE,1.7
H02,2015,7,20,19,0,0.003,0.01,0.1,0,0.002,26.1,82.6,SE,2.7
H02,2015,7,20,20,0,0.01,0.005,0.1,0,0.003,25.4,85.9,SE,2.2
H02,2015,7,20,21,0,0.015,0.002,0.1,0,0.004,24.8,90.2,ESE,1.3
H02,2015,7,20,22,0,0.02,0.002,0.1,0,0.003,24.3,93,SE,1.8
H02,2015,7,20,23,0,0.017,0.002,0.1,0,0.003,24.3,93.4,E,0.9
H02,2015,7,20,24,0,0.021,0,0.1,0,0.004,23.9,91.4,ESE,1
H02,2015,7,21,1,0,0.025,0,0.1,0,0.004,23.3,94.2,ESE,1
H02,2015,7,21,2,0,0.016,0,0.1,0.001,0.004,22.8,95.7,ESE,0.7
H02,2015,7,21,3,0,0.017,0,0.1,0,0.005,22.7,97.9,SE,1
H02,2015,7,21,4,0,0.021,0,0.2,0.001,0.007,22.4,98.4,E,0.4
H02,2015,7,21,5,0,0.011,0,0.1,0,0.005,21.8,98.9,SE,0.7
H02,2015,7,21,6,0,0.016,0,0.1,0.002,0.004,24.3,85.4,ESE,1.3
H02,2015,7,21,7,0,0.012,0.002,0.1,0.003,0.003,26.4,78.3,SE,1.8
H02,2015,7,21,8,0,0.013,0.005,0.1,0.003,0.003,27.5,75,SE,2
H02,2015,7,21,9,0,0.009,0.008,0.1,0.002,0.002,28.2,71.4,SSE,1.4
H02,2015,7,21,10,0,0.016,0.012,0.1,0.002,0.002,29.4,63,SSE,1.8
H02,2015,7,21,11,0,0.016,0.017,0.1,0.001,0.002,29,66.8,SSE,1.9
H02,2015,7,21,12,0,0.012,0.018,0.1,0,0.002,28.7,70,SE,2.1
H02,2015,7,21,13,0,0.01,0.02,0.1,0,0.001,29.4,68.4,SE,2.7
H02,2015,7,21,14,0,0.01,0.022,0.1,0,0.001,30.9,63.3,SE,2.3
H02,2015,7,21,15,0,0.003,0.019,0.1,0,0.001,30.5,67.6,***,***
H02,2015,7,21,16,0,0.02,0.014,0.1,0,0.001,30.3,65.7,SE,2.8
H02,2015,7,21,17,0,0.017,0.011,0.1,0,0.001,28.5,72.3,SE,2.9
H02,2015,7,21,18,0,0.008,0.008,0.1,0,0.001,27.7,73.1,***,***
H02,2015,7,21,19,0,0.02,0.005,0.1,0,0.003,25.8,80.8,***,***
H02,2015,7,21,20,0,0.007,0.006,0.1,0,0.002,25.2,83.1,***,***
H02,2015,7,21,21,0,0.003,0.005,0.1,0,0.004,24.5,86.9,***,***
H02,2015,7,21,22,0,0.012,0.003,0.1,0,0.005,24.2,88.4,***,***
H02,2015,7,21,23,0,0.013,0.002,0.1,0,0.005,24.2,88.4,***,***
H02,2015,7,21,24,0,0.012,0.001,0.1,0,0.005,23.8,90,***,***
H02,2015,7,22,1,***,0.013,0,***,***,***,23.4,91.3,***,***
H02,2015,7,22,2,0,0.006,0,0.1,0,0.004,22.9,90.3,***,***
H02,2015,7,22,3,0,0.007,0,0.1,0,0.004,22.6,89.3,E,1.6
H02,2015,7,22,4,0,0.011,0,0.1,0,0.003,22.8,86.6,E,2.2
H02,2015,7,22,5,0,0.014,0,0.1,0,0.002,22.7,86,ESE,1.6
H02,2015,7,22,6,0,0.008,0,0.1,0.001,0.003,24.5,78.8,***,***
H02,2015,7,22,7,0,0.008,0,0.1,0.003,0.003,25.4,79,***,***
H02,2015,7,22,8,0,0.006,0.001,0.1,0.001,0.002,25.6,80.6,***,***
H02,2015,7,22,9,0,0.008,0.002,0.1,0.001,0.003,25,88,SSW,0.9
H02,2015,7,22,10,0,0.011,0.002,0.1,0.002,0.004,24,97.7,SE,2.7
H02,2015,7,22,11,0,0.007,0.002,0.1,0.003,0.004,24.6,99.2,SE,2.2
H02,2015,7,22,12,0,0.01,0.006,0.1,0.002,0.004,25.4,99.2,SSE,2.4
H02,2015,7,22,13,0,0.011,0.01,0.1,0.002,0.002,26.6,89.6,SE,2.6
H02,2015,7,22,14,0,0.011,0.009,0.1,0.004,0.003,26.6,87.8,SE,2.2
H02,2015,7,22,15,0,0.014,0.008,0.1,0.002,0.003,26.6,87.5,***,***
H02,2015,7,22,16,0,0.007,0.008,0.1,0,0.002,25.1,92.4,***,***
H02,2015,7,22,17,0,0.009,0.006,0.1,0,0.004,24.5,97.8,***,***
H02,2015,7,22,18,0,0.009,0.006,0.1,0,0.005,24.5,96.4,SE,3.3
H02,2015,7,22,19,0,0.015,0.007,0.1,0,0.005,24,99.2,SE,2.4
H02,2015,7,22,20,0,0.02,0.007,0.1,0,0.004,23.9,99.2,SE,1.8
H02,2015,7,22,21,0,0.018,0.002,0.1,0,0.007,23.6,99.2,SE,1.1
H02,2015,7,22,22,0,0.019,0.002,0.1,0,0.007,23.5,99.2,SE,1.6
H02,2015,7,22,23,0,0.01,0.002,0.1,0,0.008,23.3,99.2,SE,1.5
H02,2015,7,22,24,0,0.01,0.002,0.1,0,0.009,23.1,99.2,SE,1.5
H02,2015,7,23,1,0,0.01,0.004,0.1,0,0.008,23,99.2,SE,1.4
H02,2015,7,23,2,0,0.017,0.001,0.1,0,0.01,23.1,99.2,SE,1.2
H02,2015,7,23,3,0,0.008,0.003,0.1,0,0.009,22.8,99.2,SE,1.5
H02,2015,7,23,4,0,0.006,0.003,0.1,0,0.009,22.8,99.2,SE,1
H02,2015,7,23,5,0,0.011,0.001,0.1,0,0.008,22.7,99.2,SE,0.5
H02,2015,7,23,6,0,0.011,0,0.1,0,0.012,22.9,99.2,SW,0.5
H02,2015,7,23,7,0,0.01,0,0.1,0.001,0.012,23,99.2,SSE,0.9
H02,2015,7,23,8,0,0.009,0,0.2,0.003,0.01,22.8,99.2,SE,1.7
H02,2015,7,23,9,0,0.009,0,0.2,0.005,0.012,23.4,99.2,SE,1
H02,2015,7,23,10,0,0.015,0,0.2,0.005,0.011,23.1,99.2,SE,1.4
H02,2015,7,23,11,0,0.007,0.001,0.2,0.004,0.009,23.3,99.2,SE,1.5
H02,2015,7,23,12,0,0.018,0.002,0.2,0.005,0.009,24.7,99.2,SE,1.3
H02,2015,7,23,13,0,0.02,0.004,0.2,0.005,0.011,24.6,98.1,SW,0.9
H02,2015,7,23,14,0,0.012,0.009,0.1,0.002,0.006,25,93.7,SW,1
H02,2015,7,23,15,0,0.013,0.011,0.1,0.005,0.008,25.1,93.3,SSW,0.5
H02,2015,7,23,16,0,0.011,0.014,0.2,0.001,0.007,25.6,89.7,SW,0.4
H02,2015,7,23,17,0.001,0.023,0.008,0.3,0.002,0.01,25.2,96.1,CALM,0.1
H02,2015,7,23,18,0.001,0.016,0.003,0.3,0.003,0.014,24.9,94.1,WNW,0.5
H02,2015,7,23,19,0.001,0.023,0.001,0.2,0.002,0.014,24.1,99.2,CALM,0.1
H02,2015,7,23,20,0,0.024,0,0.3,0.001,0.017,23.4,99.2,SE,0.6
H02,2015,7,23,21,0,0.023,0,0.3,0.002,0.016,23.3,99.2,NNE,0.4
H02,2015,7,23,22,0.001,0.017,0,0.3,0.004,0.016,23.3,99.2,CALM,0
H02,2015,7,23,23,0,0.029,0,0.3,0.001,0.014,23,99.2,ESE,0.6
H02,2015,7,23,24,0,0.026,0,0.3,0.001,0.013,22.5,99.2,CALM,0.2
H02,2015,7,24,1,0,0.022,0,0.3,0.004,0.015,22.6,99.2,CALM,0
H02,2015,7,24,2,0,0.025,0,0.3,0.004,0.014,22.6,99.2,W,0.3
H02,2015,7,24,3,0,0.031,0,0.3,0.005,0.013,22.4,99.2,CALM,0.1
H02,2015,7,24,4,0,0.015,0,0.2,0.005,0.014,22.5,99.2,SE,0.5
H02,2015,7,24,5,0,0.026,0,0.2,0.001,0.01,22.5,99.2,SE,0.5
H02,2015,7,24,6,0,0.03,0,0.2,0.003,0.006,23.1,99.2,CALM,0.2
H02,2015,7,24,7,0,0.02,0,0.2,0.008,0.008,24.2,94.3,NE,0.3
H02,2015,7,24,8,0.001,0.03,0.002,0.2,0.011,0.01,26.4,84.1,NNE,0.9
H02,2015,7,24,9,0.001,0.019,0.01,0.2,0.007,0.01,27.5,79.4,***,***
H02,2015,7,24,10,0.001,0.016,0.021,0.2,0.005,0.01,28.8,73.1,***,***
H02,2015,7,24,11,0.002,0.023,0.03,0.2,0.004,0.012,31.2,63.6,***,***
H02,2015,7,24,12,0.002,0.018,0.04,0.2,0.002,0.009,31.7,63.4,***,***
H02,2015,7,24,13,0.001,0.028,0.051,0.2,0.001,0.006,31.4,61.7,***,***
H02,2015,7,24,14,0.001,0.019,0.04,0.2,0.001,0.006,32.2,59.7,***,***
H02,2015,7,24,15,0.001,0.027,0.047,0.2,0,0.005,31.7,62.9,***,***
H02,2015,7,24,16,0.002,0.037,0.042,0.2,0.001,0.006,30.9,69,***,***
H02,2015,7,24,17,0.002,0.035,0.041,0.2,0,0.008,30.6,72.9,***,***
H02,2015,7,24,18,0.002,0.024,0.049,0.3,0.001,0.014,30.7,73.6,***,***
H02,2015,7,24,19,0.003,0.036,0.034,0.2,0,0.016,28.4,79.1,***,***
H02,2015,7,24,20,0.002,0.03,0.02,0.2,0,0.015,27,84.9,SE,0.9
H02,2015,7,24,21,0.001,0.028,0.011,0.3,0.001,0.017,26.3,87.2,SSE,0.4
H02,2015,7,24,22,0.001,0.026,0,0.3,0.002,0.026,25.8,92.2,ESE,1
H02,2015,7,24,23,0.001,0.043,0.007,0.3,0,0.01,24.9,97.1,SE,0.8
H02,2015,7,24,24,0,0.038,0.004,0.3,0,0.008,24.6,95.8,ESE,0.8
H02,2015,7,25,1,0.001,0.04,0.004,0.2,0,0.007,24.4,95.4,CALM,0.2
H02,2015,7,25,2,0.001,0.037,0.005,0.2,0,0.007,24.5,93.8,ESE,0.7
H02,2015,7,25,3,0.001,0.043,0.006,0.2,0,0.007,24,96.1,SE,0.3
H02,2015,7,25,4,0.001,0.025,0.004,0.2,0,0.008,23.1,99.2,CALM,0
H02,2015,7,25,5,0,0.039,0,0.3,0.001,0.009,22.9,99.2,CALM,0
H02,2015,7,25,6,0.001,0.039,0,0.3,0.003,0.013,23.7,99.2,CALM,0.1
H02,2015,7,25,7,0.001,0.043,0,0.3,0.009,0.013,25.7,90.6,NE,0.4
H02,2015,7,25,8,0.001,0.045,0.006,0.3,0.008,0.013,27.7,80.6,N,0.8
H02,2015,7,25,9,0.002,0.033,0.023,0.3,0.005,0.013,29,73.6,NNE,1.7
H02,2015,7,25,10,0.001,0.029,0.038,0.2,0.002,0.008,30.2,66,NNE,1.7
H02,2015,7,25,11,0.001,0.021,0.041,0.2,0.001,0.005,32.1,58.2,WNW,1.2
H02,2015,7,25,12,0.001,0.016,0.047,0.2,0.001,0.004,33,54.4,NW,0.7
H02,2015,7,25,13,0.001,0.023,0.053,0.2,0.001,0.006,33.8,51.1,W,0.9
H02,2015,7,25,14,0.001,0.016,0.062,0.2,0,0.005,34.2,49,W,1.8
H02,2015,7,25,15,0.001,0.02,0.069,0.2,0,0.005,35.1,44.6,W,1.8
H02,2015,7,25,16,0.001,0.034,0.073,0.2,0,0.006,34.5,51.2,NNE,0.5
H02,2015,7,25,17,0.002,0.029,0.072,0.3,0.003,0.012,32.8,59.3,WNW,1.3
H02,2015,7,25,18,0.002,0.03,0.062,0.3,0.001,0.011,32,57,WNW,1.7
H02,2015,7,25,19,0.001,0.021,0.041,0.2,0.001,0.012,30.6,60.9,WSW,1.2
H02,2015,7,25,20,0.003,0.02,0.032,0.2,0,0.012,28.5,76.5,SE,1.5
H02,2015,7,25,21,0.002,0.029,0.013,0.2,0.001,0.01,26.9,89.7,SE,1.5
H02,2015,7,25,22,0.001,0.021,0.005,0.2,0,0.008,26.4,89.7,SE,1.4
H02,2015,7,25,23,0.001,0.029,0.009,0.2,0,0.007,26.1,90.8,SE,1.2
H02,2015,7,25,24,0.001,0.018,0.014,0.2,0,0.006,25.4,92.9,SE,1
H02,2015,7,26,1,0,0.028,0.012,0.2,0,0.006,25.1,94,NNE,1
H02,2015,7,26,2,0.001,0.023,0.006,0.2,0,0.008,24.8,94.1,CALM,0.2
H02,2015,7,26,3,0.001,0.024,0.003,0.2,0,0.008,24.3,93.1,CALM,0.2
H02,2015,7,26,4,0.001,0.027,0.002,0.2,0,0.008,23.8,94.6,CALM,0
H02,2015,7,26,5,0.001,0.029,0,0.2,0.001,0.008,23,99.2,CALM,0
H02,2015,7,26,6,0,0.031,0,0.2,0.003,0.007,24.1,96.9,NE,0.3
H02,2015,7,26,7,0.001,0.025,0.001,0.3,0.006,0.008,26.7,80,N,0.8
H02,2015,7,26,8,0.001,0.02,0.005,0.2,0.004,0.005,28,73,NW,0.7
H02,2015,7,26,9,0.001,0.017,0.011,0.2,0.003,0.004,29.1,68.4,NNE,1.4
H02,2015,7,26,10,0.001,0.016,0.021,0.1,0.001,0.003,30.9,64.4,ENE,0.9
H02,2015,7,26,11,0.001,0.034,0.031,0.1,0,0.003,31.7,60.2,NNW,1.3
H02,2015,7,26,12,0.001,0.017,0.035,0.2,0.001,0.004,32.7,51.4,W,1
H02,2015,7,26,13,0,0.018,0.036,0.1,0,0.003,33.3,52,NW,0.7
H02,2015,7,26,14,0,0.012,0.036,0.1,0,0.003,33.6,49.3,NW,0.6
H02,2015,7,26,15,0,0.015,0.026,0.1,0.001,0.003,34.5,43.7,N,0.9
H02,2015,7,26,16,0,0.013,0.029,0.1,0.001,0.003,34.2,52.2,E,0.6
H02,2015,7,26,17,0.001,0.02,0.038,0.1,0,0.003,31.8,59.5,S,0.6
H02,2015,7,26,18,0.001,0.03,0.038,0.1,0,0.005,31.6,65.9,SSE,1
H02,2015,7,26,19,0.001,0.027,0.03,0.2,0,0.005,30,61.8,S,0.5
H02,2015,7,26,20,0.001,0.01,0.021,0.2,0,0.006,27.9,73,SSE,0.6
H02,2015,7,26,21,0.001,0.031,0.01,0.2,0,0.007,26.9,83.3,SE,1.3
H02,2015,7,26,22,0.001,0.025,0.01,0.2,0,0.007,26.2,84.2,SE,1.3
H02,2015,7,26,23,0.001,0.024,0.014,0.2,0,0.005,25.9,84.4,SE,0.9
H02,2015,7,26,24,0.001,0.021,0.011,0.2,0,0.005,25,87.7,ESE,0.9
H02,2015,7,27,1,0,0.023,0.01,0.2,0,0.004,24.8,86.6,SE,1.7
H02,2015,7,27,2,0,0.024,0.009,0.2,0,0.004,24.3,88.2,SE,1.4
H02,2015,7,27,3,0,0.024,0.004,0.2,0,0.005,23.6,91.1,ESE,0.8
H02,2015,7,27,4,0,0.018,0.005,0.2,0,0.004,23.7,87.6,ESE,0.7
H02,2015,7,27,5,0,0.026,0.007,0.2,0,0.004,23.5,86.3,SE,1.6
H02,2015,7,27,6,0,0.019,0.005,0.2,0.001,0.006,24.8,82.7,ENE,1
H02,2015,7,27,7,0,0.019,0.005,0.2,0.003,0.006,26.7,74.4,E,1.8
H02,2015,7,27,8,0,0.017,0.01,0.2,0.003,0.005,28.1,67.8,ESE,1.2
H02,2015,7,27,9,0.001,0.017,0.02,0.2,0.002,0.006,29.8,61.9,WSW,0.7
H02,2015,7,27,10,0.001,0.036,0.036,0.2,0.001,0.005,31.3,60,S,1.2
H02,2015,7,27,11,0.001,0.035,0.052,0.2,0.001,0.005,32.2,57.1,SSW,0.8
H02,2015,7,27,12,0.001,0.031,0.067,0.2,0.001,0.007,33.4,56.4,SSE,1.1
H02,2015,7,27,13,0.001,0.017,0.059,0.2,0,0.004,32.9,55.1,SE,0.8
H02,2015,7,27,14,0.001,0.024,0.058,0.2,0,0.004,33,61.2,S,1.1
H02,2015,7,27,15,0,0.025,0.04,0.1,0,0.004,32.4,66,SSW,1.1
H02,2015,7,27,16,0,0.029,0.032,0.1,0.001,0.004,32.9,65.3,SW,1.2
H02,2015,7,27,17,0,0.02,0.031,0.1,0.001,0.004,32.7,63.9,SSE,1.2
H02,2015,7,27,18,0,0.037,0.027,0.1,0,0.005,29.6,74.7,ENE,0.9
H02,2015,7,27,19,0,0.055,0.051,0.3,0.001,0.01,26.7,97.1,WSW,0.7
H02,2015,7,27,20,0,0.029,0.027,0.2,0,0.009,25.8,99.2,SSE,0.9
H02,2015,7,27,21,0,0.032,0.015,0.2,0,0.008,25.5,99.2,SW,0.9
H02,2015,7,27,22,0,0.021,0.011,0.2,0,0.006,25.4,99.2,CALM,0.2
H02,2015,7,27,23,0,0.02,0.011,0.2,0,0.006,24.9,99.2,W,0.3
H02,2015,7,27,24,0,0.025,0.016,0.2,0,0.009,24.8,99.2,NNE,1
H02,2015,7,28,1,***,0.022,0.021,***,***,***,24.5,99.2,NW,0.3
H02,2015,7,28,2,0,0.022,0.02,0.2,0,0.006,24.5,99.2,CALM,0.1
H02,2015,7,28,3,0,0.024,0.018,0.2,0,0.007,24.6,99.2,WNW,0.4
H02,2015,7,28,4,0,0.015,0.008,0.1,0,0.007,24.5,94.4,WNW,0.5
H02,2015,7,28,5,0.001,0.013,0.004,0.1,0.001,0.008,24.3,95.7,WNW,0.4
H02,2015,7,28,6,0.001,0.016,0.004,0.1,0.002,0.009,25.2,92.4,NW,0.3
H02,2015,7,28,7,0.001,0.016,0.015,0.2,0.002,0.007,27.5,72.9,WNW,0.9
H02,2015,7,28,8,0,0.022,0.019,0.2,0.003,0.006,28.4,69.8,WNW,1.2
H02,2015,7,28,9,0,0.018,0.021,0.2,0.004,0.007,29.9,62,WNW,1.8
H02,2015,7,28,10,0,0.016,0.026,0.2,0.002,0.005,31.1,56.6,WNW,1.7
H02,2015,7,28,11,0,0.023,0.027,0.2,0.001,0.004,32.4,58.2,WNW,1
H02,2015,7,28,12,0,0.011,0.028,0.1,0.001,0.003,33.4,52.6,WNW,1.6
H02,2015,7,28,13,0,0.023,0.035,0.2,0.001,0.004,33.1,53.8,WNW,2.3
H02,2015,7,28,14,0,0.027,0.036,0.2,0.001,0.004,33.9,55.2,WNW,2
H02,2015,7,28,15,0,0.019,0.038,0.2,0.001,0.005,33.5,56.6,WNW,2.6
H02,2015,7,28,16,0,0.027,0.032,0.2,0.002,0.006,31.5,62.1,WNW,2.2
H02,2015,7,28,17,0,0.021,0.029,0.2,0.001,0.005,31.7,61.9,WNW,3.2
H02,2015,7,28,18,0,0.012,0.026,0.2,0.001,0.005,30.3,67.5,WNW,1.9
H02,2015,7,28,19,0,0.017,0.024,0.2,0.001,0.006,28.9,70.3,WNW,2.2
H02,2015,7,28,20,0.001,0.021,0.024,0.2,0,0.007,28.3,73.4,WNW,1.7
H02,2015,7,28,21,0.001,0.017,0.022,0.2,0,0.006,27.6,76.4,WNW,0.7
H02,2015,7,28,22,0,0.013,0.022,0.2,0,0.005,27,80.8,WNW,0.4
H02,2015,7,28,23,0,0.02,0.021,0.2,0,0.006,26.6,83.6,CALM,0.2
H02,2015,7,28,24,0,0.023,0.019,0.2,0,0.006,25.8,87.4,CALM,0.2
H02,2015,7,29,1,0,0.027,0.012,0.2,0,0.009,25.2,91.9,CALM,0
H02,2015,7,29,2,0,0.024,0.004,0.2,0.001,0.013,24.5,95.2,SE,0.5
H02,2015,7,29,3,0,0.017,0.001,0.2,0.001,0.014,24.5,94.6,CALM,0
H02,2015,7,29,4,0,0.027,0.002,0.2,0,0.012,24.3,97,SE,1.3
H02,2015,7,29,5,0,0.019,0,0.2,0,0.013,24.8,94.2,CALM,0.2
H02,2015,7,29,6,0,0.024,0,0.2,0.003,0.013,25,95.3,NE,0.3
H02,2015,7,29,7,0,0.03,0.006,0.2,0.003,0.01,27.5,80.8,N,0.5
H02,2015,7,29,8,0.001,0.018,0.016,0.2,0.004,0.01,28.5,77.3,NW,1
H02,2015,7,29,9,0.001,0.025,0.024,0.2,0.003,0.008,29.8,70.8,W,1.1
H02,2015,7,29,10,0,0.022,0.025,0.3,0.003,0.01,30.8,66.8,WNW,1.3
H02,2015,7,29,11,0,0.023,0.034,0.2,0.002,0.006,31.9,60.1,W,2
H02,2015,7,29,12,0,0.021,0.049,0.2,0.001,0.005,33.9,54.2,NW,1.5
H02,2015,7,29,13,0.001,0.028,0.051,0.2,0.001,0.005,33.3,58.1,NW,1.5
H02,2015,7,29,14,0,0.025,0.045,0.2,0.002,0.005,34.8,49.9,W,2.5
H02,2015,7,29,15,0,0.014,0.039,0.2,0.002,0.006,35.3,42.7,WNW,1.8
H02,2015,7,29,16,0,0.022,0.038,0.2,0.001,0.004,35.1,45.9,WNW,2.1
H02,2015,7,29,17,0,0.035,0.037,0.2,0.001,0.005,34.1,49.2,WNW,1.3
H02,2015,7,29,18,0,0.026,0.034,0.3,0.001,0.007,31.9,55.8,WNW,0.9
H02,2015,7,29,19,0.001,0.022,0.03,0.3,0.001,0.011,30,56.3,WNW,1.4
H02,2015,7,29,20,0.001,0.022,0.031,0.3,0.001,0.01,28.1,66.3,WNW,0.3
H02,2015,7,29,21,0,0.022,0.027,0.3,0,0.009,27.9,69.8,CALM,0.1
H02,2015,7,29,22,0,0.022,0.022,0.3,0,0.011,27,79.9,SE,1.2
H02,2015,7,29,23,0.001,0.042,0.022,0.3,0.001,0.018,26.6,88.8,SE,1.6
H02,2015,7,29,24,0.001,0.035,0.028,0.3,0.001,0.013,26.2,90.2,SE,0.9
H02,2015,7,30,1,0.001,0.039,0.026,0.3,0,0.013,26.1,90.7,SE,1.3
H02,2015,7,30,2,0,0.037,0.01,0.3,0.001,0.014,24.8,89.8,ESE,0.9
H02,2015,7,30,3,0,0.032,0.013,0.2,0,0.007,24.5,91.3,SE,0.5
H02,2015,7,30,4,0,0.036,0.014,0.2,0,0.007,24.5,90.5,SE,0.6
H02,2015,7,30,5,0,0.03,0.007,0.3,0,0.01,24.5,93.3,CALM,0
H02,2015,7,30,6,0,0.037,0,0.3,0.003,0.016,25.1,93.3,SE,0.7
H02,2015,7,30,7,0,0.042,0.005,0.3,0.004,0.014,26.9,86.5,NE,0.7
H02,2015,7,30,8,0.001,0.044,0.015,0.4,0.005,0.015,28.4,80.9,NNE,1
H02,2015,7,30,9,0.001,0.031,0.03,0.3,0.003,0.012,30.1,70.9,N,1.1
H02,2015,7,30,10,0.001,0.04,0.043,0.3,0.002,0.008,31.7,64.8,NW,0.9
H02,2015,7,30,11,0.001,0.031,0.056,0.3,0.001,0.008,32.9,57.6,NW,1.1
H02,2015,7,30,12,0,0.03,0.054,0.2,0.001,0.006,33.9,51.8,WNW,2.3
H02,2015,7,30,13,0,0.032,0.055,0.3,0.001,0.005,32.6,62.8,WNW,2
H02,2015,7,30,14,0,0.054,0.041,0.2,0.001,0.008,31,63,WNW,0.9
H02,2015,7,30,15,0,0.03,0.036,0.2,0.001,0.008,30.8,69.1,WNW,0.7
H02,2015,7,30,16,0,0.027,0.042,0.3,0.001,0.006,34.3,59.1,NNW,1
H02,2015,7,30,17,0,0.046,0.043,0.2,0.001,0.005,33.1,58.4,WNW,2.1
H02,2015,7,30,18,0,0.041,0.04,0.3,0.001,0.006,32,57.8,WNW,2
H02,2015,7,30,19,0,0.043,0.037,0.3,0.001,0.007,30.1,68.3,WNW,1.8
H02,2015,7,30,20,0,0.042,0.033,0.3,0.001,0.007,28.7,75,W,0.7
H02,2015,7,30,21,0,0.037,0.03,0.3,0.001,0.007,28,77.6,WNW,0.5
H02,2015,7,30,22,0,0.038,0.027,0.3,0,0.006,27,81.1,WNW,0.3
H02,2015,7,30,23,0,0.042,0.024,0.2,0,0.006,26.4,85.3,NW,0.3
H02,2015,7,30,24,0.001,0.043,0.01,0.3,0.001,0.017,25.8,88.3,CALM,0
H02,2015,7,31,1,0,0.047,0.01,0.3,0.001,0.013,25.2,91.5,CALM,0
H02,2015,7,31,2,0,0.04,0.004,0.3,0.001,0.016,25.2,92.5,SSW,0.4
H02,2015,7,31,3,0,0.05,0.001,0.3,0.001,0.016,24.5,96.9,CALM,0
H02,2015,7,31,4,0,0.04,0,0.3,0.001,0.019,24,99.2,ESE,0.4
H02,2015,7,31,5,0,0.042,0,0.3,0.003,0.017,23.9,99.2,CALM,0
H02,2015,7,31,6,0,0.036,0,0.3,0.006,0.017,25.4,94.8,CALM,0.1
H02,2015,7,31,7,0.001,0.046,0,0.3,0.011,0.015,26.9,86,NNE,1.3
H02,2015,7,31,8,0.001,0.043,0.007,0.3,0.008,0.013,28.6,79.2,NNW,0.6
H02,2015,7,31,9,0.001,0.037,0.022,0.3,0.007,0.014,30.6,67.8,NNW,1
H02,2015,7,31,10,0.001,0.039,0.042,0.3,0.003,0.009,32.3,60.9,NNW,0.8
H02,2015,7,31,11,0,0.04,0.057,0.3,0.001,0.007,33.4,57.8,WNW,0.7
H02,2015,7,31,12,0,0.041,0.064,0.2,0,0.005,34.5,49.4,W,1.3
H02,2015,7,31,13,0,0.027,0.067,0.2,0.001,0.005,35.8,50.4,SW,0.8
H02,2015,7,31,14,0.001,0.037,0.07,0.2,0.001,0.005,36.2,45.7,WNW,1.3
H02,2015,7,31,15,0,0.031,0.073,0.2,0,0.004,35.8,47.6,N,0.7
H02,2015,7,31,16,0.001,0.041,0.071,0.2,0,0.005,35.9,47.9,WSW,1.6
H02,2015,7,31,17,0.001,0.043,0.067,0.2,0,0.007,35.6,49.4,WSW,1.1